星链-31402 (STARLINK-31402 )

导读 | 豆包AI

STARLINK-31402是美国SpaceX星链计划的卫星,于北京时间2024年3月25日8点发射入轨。星链计划旨在构建全球卫星互联网星座,为全球提供高速互联网接入服务,覆盖偏远地区并补充地面网络不足,该卫星进一步扩充了星链星座规模,助力其组网运行与服务能力提升。

基本信息
目录编号:
59320
目录名称:
STARLINK-31402
国际标识:
2024-057A
轨道中心:
EARTH
卫星名称:
星链-31402
卫星全名:
星链-31402 (STARLINK-31402 )
卫星状态:
在轨 (已飞行720 天)
发射日期:
2024-03-25 UTC
国别 :
美国 (US)
星等 :
--
轨道信息
数据来源 国际轨道数据 AOE轨道数据
星历时间 2026-03-15T19:10:06+0800
12小时前
查看轨道信息
2026-03-12T16:00:00+0800
3天前
查看轨道信息
半长轴 6861.186km 6861.164km
偏心率 0.0001256 0.0002556
轨道倾角 43.001° 43.012°
近地点辐角 289.813° 295.030°
升交点赤经 106.849° 124.549°
平近点角 70.259° 101.022°
近地点 482.187km 481.273km
远地点 483.911km 484.781km
周期 94.267分钟 94.266分钟
每日圈数 15.275802 15.275876
详细信息
固有亮度:
5
最大亮度:
0.3
卫星平台:
Starlink v2.0 mini
覆盖范围:
全球
运营商:
太空探索技术公司
运营商所在国:
美国
制造商(研发单位):
太空探索技术公司
制造商所在国:
美国
使用方式:
暂无
卫星简介
星链(Starlink)计划是由太空探索技术公司(SpaceX)提出的一个巨型低轨卫星互联网星座项目,计划在2019年至2024年间在太空搭建由约1.2万颗卫星组成的“星链”网络,其中1584颗将部署在地球上空550千米处的近地轨道,并从2020年开始工作。该卫星仍在工作。
2D轨道图
3D轨道图
轨道高度分析图
轨道倾角分析图
轨道综合分析图
查看轨道综合分析图